| time (UTC) | temp F | wind direction | speed MPH | gust MPH | rain 1hr in | rain 24hr in | rain mn in | humidity % | barometer mb |
| 20260505222743 | 0 | 11 | 2.0 | 5.0 | 0.00 | 0.00 | 0.00 | 1017.3 | |
| 20260505222240 | 0 | 348 | 2.0 | 5.0 | 0.00 | 0.00 | 0.00 | 1017.3 | |
| 20260505221737 | 0 | 355 | 2.0 | 5.0 | 0.00 | 0.00 | 0.00 | 1017.3 | |
| 20260505221233 | 0 | 5 | 2.0 | 5.0 | 0.00 | 0.00 | 0.00 | 1017.3 | |
| 20260505220730 | 0 | 5 | 2.0 | 7.0 | 0.00 | 0.00 | 0.00 | 1017.3 | |
| 20260505220228 | 0 | 5 | 2.0 | 7.0 | 0.00 | 0.00 | 0.00 | 1017.3 | |
| 20260505215726 | 0 | 14 | 2.0 | 4.0 | 0.00 | 0.00 | 0.00 | 1017.3 | |
| 20260505215223 | 0 | 5 | 1.0 | 5.0 | 0.00 | 0.00 | 0.00 | 1017.3 | |
| 20260505214721 | 0 | 38 | 2.0 | 5.0 | 0.00 | 0.00 | 0.00 | 1017.7 | |
| 20260505214218 | 0 | 0 | 2.0 | 5.0 | 0.00 | 0.00 | 0.00 | 1017.7 | |
| 20260505213715 | 0 | 355 | 2.0 | 4.0 | 0.00 | 0.00 | 0.00 | 1017.7 | |
| 20260505213212 | 0 | 15 | 2.0 | 4.0 | 0.00 | 0.00 | 0.00 | 1017.7 | |
| 20260505212708 | 0 | 289 | 2.0 | 6.0 | 0.00 | 0.00 | 0.00 | 1017.7 | |
| 20260505212206 | 0 | 325 | 2.0 | 8.0 | 0.00 | 0.00 | 0.00 | 1017.7 | |
| 20260505211702 | 0 | 5 | 2.0 | 8.0 | 0.00 | 0.00 | 0.00 | 1017.7 | |
| 20260505211200 | 0 | 5 | 2.0 | 8.0 | 0.00 | 0.00 | 0.00 | 1017.7 | |
| 20260505210656 | 0 | 342 | 2.0 | 8.0 | 0.00 | 0.00 | 0.00 | 1017.7 | |
| 20260505210153 | 0 | 350 | 2.0 | 6.0 | 0.00 | 0.00 | 0.00 | 1017.7 | |
| 20260505205651 | 0 | 9 | 2.0 | 5.0 | 0.00 | 0.00 | 0.00 | 1017.7 | |
| 20260505205149 | 0 | 332 | 2.0 | 5.0 | 0.00 | 0.00 | 0.00 | 1017.7 | |
| 20260505204645 | 0 | 0 | 2.0 | 5.0 | 0.00 | 0.00 | 0.00 | 1017.7 | |
| 20260505204143 | 0 | 341 | 2.0 | 5.0 | 0.00 | 0.00 | 0.00 | 1017.7 | |
| 20260505203640 | 0 | 24 | 2.0 | 5.0 | 0.00 | 0.00 | 0.00 | 1017.7 | |
| 20260505203137 | 0 | 5 | 1.0 | 4.0 | 0.00 | 0.00 | 0.00 | 1017.7 | |
| 20260505202632 | 0 | 89 | 1.0 | 4.0 | 0.00 | 0.00 | 0.00 | 1017.7 | |
| 20260505202128 | 0 | 5 | 1.0 | 4.0 | 0.00 | 0.00 | 0.00 | 1017.7 | |
| 20260505201625 | 0 | 355 | 1.0 | 4.0 | 0.00 | 0.00 | 0.00 | 1017.7 | |
| 20260505201123 | 0 | 5 | 1.0 | 4.0 | 0.00 | 0.00 | 0.00 | 1017.7 | |
| 20260505200621 | 0 | 88 | 1.0 | 3.0 | 0.00 | 0.00 | 0.00 | 1017.7 | |
| 20260505200118 | 0 | 63 | 1.0 | 4.0 | 0.00 | 0.00 | 0.00 | 1017.7 | |
| 20260505195614 | 0 | 0 | 1.0 | 4.0 | 0.00 | 0.00 | 0.00 | 1017.7 | |
| 20260505195111 | 0 | 16 | 1.0 | 5.0 | 0.00 | 0.00 | 0.00 | 1017.7 | |
| 20260505194608 | 0 | 17 | 2.0 | 5.0 | 0.00 | 0.00 | 0.00 | 1017.3 | |
| 20260505194104 | 0 | 0 | 1.0 | 5.0 | 0.00 | 0.00 | 0.00 | 1017.3 | |
| 20260505193601 | 0 | 46 | 1.0 | 4.0 | 0.00 | 0.00 | 0.00 | 1017.3 | |
| 20260505193058 | 0 | 36 | 1.0 | 3.0 | 0.00 | 0.00 | 0.00 | 1017.3 | |
| 20260505192557 | 0 | 5 | 1.0 | 3.0 | 0.00 | 0.00 | 0.00 | 1017.3 | |
| 20260505192054 | 0 | 340 | 1.0 | 4.0 | 0.00 | 0.00 | 0.00 | 1017.3 | |
| 20260505191552 | 0 | 72 | 1.0 | 4.0 | 0.00 | 0.00 | 0.00 | 1017.3 | |
| 20260505191050 | 0 | 162 | 1.0 | 4.0 | 0.00 | 0.00 | 0.00 | 1017.3 | |
| 20260505190544 | 0 | 355 | 1.0 | 3.0 | 0.00 | 0.00 | 0.00 | 1017.3 | |
| 20260505190040 | 0 | 61 | 1.0 | 4.0 | 0.00 | 0.00 | 0.00 | 1017.3 | |
| 20260505185537 | 0 | 80 | 1.0 | 4.0 | 0.00 | 0.00 | 0.00 | 1017.3 | |
| 20260505185033 | 0 | 38 | 0.0 | 2.0 | 0.00 | 0.00 | 0.00 | 1017.3 | |
| 20260505184530 | 0 | 37 | 0.0 | 2.0 | 0.00 | 0.00 | 0.00 | 1017.3 | |
| 20260505184027 | 0 | 37 | 0.0 | 2.0 | 0.00 | 0.00 | 0.00 | 1017.3 | |
| 20260505183524 | 0 | 39 | 0.0 | 2.0 | 0.00 | 0.00 | 0.00 | 1017.3 | |
| 20260505183021 | 0 | 36 | 0.0 | 2.0 | 0.00 | 0.00 | 0.00 | 1017.3 | |
| 20260505182518 | 0 | 37 | 1.0 | 2.0 | 0.00 | 0.00 | 0.00 | 1017.3 | |
| 20260505182015 | 0 | 30 | 0.0 | 2.0 | 0.00 | 0.00 | 0.00 | 1017.3 | |
| 20260505181511 | 0 | 34 | 0.0 | 2.0 | 0.00 | 0.00 | 0.00 | 1017.3 | |
| 20260505181009 | 0 | 50 | 0.0 | 1.0 | 0.00 | 0.00 | 0.00 | 1017.0 | |
| 20260505180504 | 0 | 50 | 0.0 | 1.0 | 0.00 | 0.00 | 0.00 | 1017.3 | |
| 20260505180002 | 0 | 50 | 0.0 | 2.0 | 0.00 | 0.00 | 0.00 | 1017.0 | |
| 20260505175457 | 0 | 50 | 0.0 | 2.0 | 0.00 | 0.00 | 0.00 | 1017.3 | |
| 20260505174954 | 0 | 50 | 1.0 | 3.0 | 0.00 | 0.00 | 0.00 | 1017.0 | |
| 20260505174451 | 0 | 49 | 1.0 | 3.0 | 0.00 | 0.00 | 0.00 | 1017.0 | |
| 20260505173947 | 0 | 51 | 1.0 | 4.0 | 0.00 | 0.00 | 0.00 | 1017.0 | |
| 20260505173444 | 0 | 78 | 1.0 | 4.0 | 0.00 | 0.00 | 0.00 | 1017.0 | |
| 20260505172941 | 0 | 95 | 0.0 | 3.0 | 0.00 | 0.00 | 0.00 | 1017.0 | |
| 20260505172439 | 0 | 105 | 0.0 | 0.0 | 0.00 | 0.00 | 0.00 | 1017.0 | |
| 20260505171938 | 0 | 105 | 0.0 | 0.0 | 0.00 | 0.00 | 0.00 | 1017.0 | |
| 20260505171436 | 0 | 65 | 0.0 | 0.0 | 0.00 | 0.00 | 0.00 | 1017.0 | |
| 20260505170932 | 0 | 65 | 0.0 | 0.0 | 0.00 | 0.00 | 0.00 | 1017.0 | |
| 20260505170429 | 0 | 65 | 0.0 | 0.0 | 0.00 | 0.00 | 0.00 | 1016.7 | |
| 20260505165924 | 0 | 65 | 0.0 | 0.0 | 0.00 | 0.00 | 0.00 | 1017.0 | |
| 20260505165420 | 0 | 66 | 0.0 | 0.0 | 0.00 | 0.00 | 0.00 | 1016.7 | |
| 20260505164916 | 0 | 65 | 0.0 | 0.0 | 0.00 | 0.00 | 0.00 | 1016.7 | |
| 20260505164413 | 0 | 65 | 0.0 | 0.0 | 0.00 | 0.00 | 0.00 | 1016.7 | |
| 20260505163911 | 0 | 65 | 0.0 | 0.0 | 0.00 | 0.00 | 0.00 | 1016.7 | |
| 20260505163410 | 0 | 65 | 0.0 | 0.0 | 0.00 | 0.00 | 0.00 | 1016.7 | |
| 20260505162908 | 0 | 65 | 0.0 | 0.0 | 0.00 | 0.00 | 0.00 | 1016.7 | |
| 20260505162403 | 0 | 71 | 0.0 | 0.0 | 0.00 | 0.00 | 0.00 | 1016.7 | |
| 20260505161901 | 0 | 113 | 0.0 | 0.0 | 0.00 | 0.00 | 0.00 | 1017.0 | |
| 20260505161357 | 0 | 113 | 0.0 | 0.0 | 0.00 | 0.00 | 0.00 | 1017.0 | |
| 20260505160855 | 0 | 113 | 0.0 | 0.0 | 0.00 | 0.00 | 0.00 | 1017.0 | |
| 20260505160353 | 0 | 113 | 0.0 | 0.0 | 0.00 | 0.00 | 0.00 | 1017.0 | |
| 20260505153332 | 0 | 113 | 0.0 | 0.0 | 0.00 | 0.00 | 0.00 | 1017.0 | |
| 20260505152829 | 0 | 113 | 0.0 | 0.0 | 0.00 | 0.00 | 0.00 | 1017.0 | |
| 20260505152326 | 0 | 113 | 0.0 | 0.0 | 0.00 | 0.00 | 0.00 | 1017.0 | |
| 20260505151820 | 0 | 113 | 0.0 | 0.0 | 0.00 | 0.00 | 0.00 | 1017.0 | |
| 20260505151317 | 0 | 113 | 0.0 | 0.0 | 0.00 | 0.00 | 0.00 | 1017.0 | |
| 20260505150814 | 0 | 113 | 0.0 | 0.0 | 0.00 | 0.00 | 0.00 | 1017.0 | |
| 20260505150311 | 0 | 113 | 0.0 | 0.0 | 0.00 | 0.00 | 0.00 | 1016.7 | |
| 20260505140235 | 0 | 113 | 0.0 | 0.0 | 0.00 | 0.00 | 0.00 | 1016.7 | |
| 20260505130159 | 0 | 113 | 0.0 | 0.0 | 0.00 | 0.00 | 0.00 | 1016.3 | |
| 20260505124649 | 0 | 113 | 0.0 | 0.0 | 0.00 | 0.00 | 0.00 | 1016.3 | |
| 20260505124145 | 0 | 113 | 0.0 | 0.0 | 0.00 | 0.00 | 0.00 | 1016.3 | |
| 20260505123641 | 0 | 113 | 0.0 | 0.0 | 0.00 | 0.00 | 0.00 | 1016.0 | |
| 20260505123139 | 0 | 113 | 0.0 | 0.0 | 0.00 | 0.00 | 0.00 | 1016.3 | |
| 20260505122635 | 0 | 113 | 0.0 | 0.0 | 0.00 | 0.00 | 0.00 | 1016.0 | |
| 20260505122132 | 0 | 113 | 0.0 | 0.0 | 0.00 | 0.00 | 0.00 | 1016.0 | |
| 20260505121629 | 0 | 113 | 0.0 | 0.0 | 0.00 | 0.00 | 0.00 | 1016.0 | |
| 20260505121125 | 0 | 113 | 0.0 | 0.0 | 0.00 | 0.00 | 0.00 | 1016.0 | |
| 20260505120622 | 0 | 113 | 0.0 | 1.0 | 0.00 | 0.00 | 0.00 | 1016.0 | |
| 20260505120118 | 0 | 113 | 0.0 | 1.0 | 0.00 | 0.00 | 0.00 | 1016.0 | |
| 20260505115612 | 0 | 113 | 0.0 | 0.0 | 0.00 | 0.00 | 0.00 | 1016.0 | |
| 20260505115110 | 0 | 113 | 0.0 | 0.0 | 0.00 | 0.00 | 0.00 | 1016.0 | |
| 20260505114607 | 0 | 113 | 0.0 | 0.0 | 0.00 | 0.00 | 0.00 | 1016.0 | |
| 20260505114103 | 0 | 113 | 0.0 | 0.0 | 0.00 | 0.00 | 0.00 | 1016.0 | |
| 20260505113559 | 0 | 113 | 0.0 | 0.0 | 0.00 | 0.00 | 0.00 | 1016.0 | |
| 20260505113056 | 0 | 113 | 0.0 | 0.0 | 0.00 | 0.00 | 0.00 | 1016.0 | |
| 20260505112552 | 0 | 113 | 0.0 | 2.0 | 0.00 | 0.00 | 0.00 | 1016.0 | |
| 20260505112051 | 0 | 113 | 0.0 | 2.0 | 0.00 | 0.00 | 0.00 | 1016.0 | |
| 20260505111544 | 0 | 113 | 0.0 | 2.0 | 0.00 | 0.00 | 0.00 | 1016.0 | |
| 20260505111040 | 0 | 113 | 0.0 | 2.0 | 0.00 | 0.00 | 0.00 | 1016.0 | |
| 20260505110537 | 0 | 113 | 0.0 | 2.0 | 0.00 | 0.00 | 0.00 | 1016.0 | |
| 20260505102010 | 0 | 119 | 0.0 | 3.0 | 0.00 | 0.00 | 0.00 | 1015.6 | |
| 20260505101508 | 0 | 128 | 0.0 | 3.0 | 0.00 | 0.00 | 0.00 | 1015.6 | |
| 20260505101004 | 0 | 146 | 0.0 | 3.0 | 0.00 | 0.00 | 0.00 | 1015.6 | |
| 20260505100501 | 0 | 146 | 0.0 | 3.0 | 0.00 | 0.00 | 0.00 | 1015.6 | |
| 20260505095957 | 0 | 103 | 0.0 | 1.0 | 0.00 | 0.00 | 0.00 | 1015.6 | |
| 20260505095454 | 0 | 103 | 0.0 | 1.0 | 0.00 | 0.00 | 0.00 | 1015.6 | |
| 20260505094950 | 0 | 103 | 0.0 | 1.0 | 0.00 | 0.00 | 0.00 | 1015.6 | |
| 20260505094447 | 0 | 103 | 0.0 | 1.0 | 0.00 | 0.00 | 0.00 | 1015.6 | |
| 20260505093943 | 0 | 103 | 0.0 | 1.0 | 0.00 | 0.00 | 0.00 | 1015.6 | |
| 20260505093440 | 0 | 103 | 0.0 | 2.0 | 0.00 | 0.00 | 0.00 | 1015.6 | |
| 20260505092937 | 0 | 103 | 0.0 | 2.0 | 0.00 | 0.00 | 0.00 | 1015.6 | |
| 20260505092435 | 0 | 103 | 0.0 | 0.0 | 0.00 | 0.00 | 0.00 | 1015.6 | |
| 20260505091932 | 0 | 103 | 0.0 | 1.0 | 0.00 | 0.00 | 0.00 | 1015.6 | |
| 20260505091430 | 0 | 103 | 0.0 | 1.0 | 0.00 | 0.00 | 0.00 | 1015.6 | |
| 20260505090928 | 0 | 103 | 0.0 | 0.0 | 0.00 | 0.00 | 0.00 | 1015.6 | |
| 20260505090426 | 0 | 103 | 0.0 | 1.0 | 0.00 | 0.00 | 0.00 | 1015.6 | |
| 20260505085923 | 0 | 103 | 0.0 | 1.0 | 0.00 | 0.00 | 0.00 | 1015.6 | |
| 20260505085420 | 0 | 103 | 0.0 | 1.0 | 0.00 | 0.00 | 0.00 | 1015.6 | |
| 20260505084918 | 0 | 103 | 0.0 | 1.0 | 0.00 | 0.00 | 0.00 | 1015.6 | |
| 20260505084416 | 0 | 103 | 0.0 | 1.0 | 0.00 | 0.00 | 0.00 | 1015.6 | |
| 20260505083914 | 0 | 103 | 0.0 | 1.0 | 0.00 | 0.00 | 0.00 | 1015.6 | |
| 20260505083411 | 0 | 103 | 0.0 | 1.0 | 0.00 | 0.00 | 0.00 | 1015.6 | |
| 20260505082907 | 0 | 103 | 0.0 | 1.0 | 0.00 | 0.00 | 0.00 | 1016.0 | |
| 20260505082403 | 0 | 103 | 0.0 | 0.0 | 0.00 | 0.00 | 0.00 | 1015.6 | |
| 20260505081900 | 0 | 103 | 0.0 | 0.0 | 0.00 | 0.00 | 0.00 | 1016.0 | |
| 20260505081357 | 0 | 103 | 0.0 | 0.0 | 0.00 | 0.00 | 0.00 | 1016.0 | |
| 20260505080854 | 0 | 103 | 0.0 | 0.0 | 0.00 | 0.00 | 0.00 | 1016.0 | |
| 20260505080350 | 0 | 103 | 0.0 | 0.0 | 0.00 | 0.00 | 0.00 | 1016.0 | |
| 20260505075845 | 0 | 103 | 0.0 | 0.0 | 0.00 | 0.00 | 0.00 | 1016.0 | |
| 20260505075342 | 0 | 103 | 0.0 | 0.0 | 0.00 | 0.00 | 0.00 | 1016.0 | |
| 20260505074839 | 0 | 103 | 0.0 | 0.0 | 0.00 | 0.00 | 0.00 | 1016.0 | |
| 20260505074337 | 0 | 103 | 0.0 | 0.0 | 0.00 | 0.00 | 0.00 | 1016.0 | |
| 20260505073834 | 0 | 103 | 0.0 | 1.0 | 0.00 | 0.00 | 0.00 | 1016.0 | |
| 20260505073332 | 0 | 103 | 0.0 | 1.0 | 0.00 | 0.00 | 0.00 | 1016.3 | |
| 20260505072829 | 0 | 103 | 0.0 | 1.0 | 0.00 | 0.00 | 0.00 | 1016.0 | |
| 20260505072325 | 0 | 103 | 0.0 | 1.0 | 0.00 | 0.00 | 0.00 | 1016.0 | |
| 20260505071821 | 0 | 103 | 0.0 | 1.0 | 0.00 | 0.00 | 0.00 | 1016.3 | |
| 20260505071317 | 0 | 103 | 0.0 | 2.0 | 0.00 | 0.00 | 0.00 | 1016.0 | |
| 20260505070816 | 0 | 103 | 0.0 | 2.0 | 0.00 | 0.00 | 0.00 | 1016.0 | |
| 20260505070312 | 0 | 103 | 0.0 | 2.0 | 0.00 | 0.00 | 0.00 | 1016.0 | |
| 20260505065807 | 0 | 103 | 0.0 | 2.0 | 0.00 | 0.01 | 0.01 | 1016.0 | |
| 20260505065304 | 0 | 103 | 0.0 | 2.0 | 0.00 | 0.01 | 0.01 | 1016.0 | |
| 20260505064801 | 0 | 103 | 0.0 | 1.0 | 0.00 | 0.01 | 0.01 | 1016.0 | |
| 20260505064258 | 0 | 103 | 0.0 | 0.0 | 0.00 | 0.01 | 0.01 | 1016.0 | |
| 20260505063756 | 0 | 103 | 0.0 | 0.0 | 0.00 | 0.01 | 0.01 | 1016.0 | |
| 20260505063252 | 0 | 103 | 0.0 | 0.0 | 0.00 | 0.01 | 0.01 | 1016.0 | |
| 20260505062749 | 0 | 103 | 0.0 | 0.0 | 0.00 | 0.01 | 0.01 | 1016.3 | |
| 20260505062246 | 0 | 103 | 0.0 | 0.0 | 0.00 | 0.01 | 0.01 | 1016.3 | |
| 20260505061743 | 0 | 103 | 0.0 | 1.0 | 0.00 | 0.01 | 0.01 | 1016.0 | |
| 20260505061241 | 0 | 103 | 0.0 | 2.0 | 0.00 | 0.01 | 0.01 | 1016.0 | |
| 20260505060738 | 0 | 103 | 0.0 | 2.0 | 0.00 | 0.01 | 0.01 | 1016.0 | |
| 20260505060235 | 0 | 103 | 0.0 | 1.0 | 0.00 | 0.01 | 0.01 | 1016.0 | |
| 20260505055730 | 0 | 103 | 0.0 | 1.0 | 0.00 | 0.01 | 0.01 | 1016.0 | |
| 20260505055227 | 0 | 103 | 0.0 | 0.0 | 0.00 | 0.01 | 0.01 | 1016.0 | |
| 20260505054724 | 0 | 103 | 0.0 | 1.0 | 0.00 | 0.01 | 0.01 | 1016.0 | |
| 20260505054222 | 0 | 103 | 0.0 | 1.0 | 0.00 | 0.01 | 0.01 | 1016.0 | |
| 20260505053720 | 0 | 103 | 0.0 | 0.0 | 0.00 | 0.01 | 0.01 | 1016.0 | |
| 20260505053216 | 0 | 103 | 0.0 | 0.0 | 0.00 | 0.01 | 0.01 | 1016.0 | |
| 20260505052714 | 0 | 103 | 0.0 | 1.0 | 0.00 | 0.01 | 0.01 | 1016.0 | |
| 20260505052210 | 0 | 103 | 0.0 | 1.0 | 0.00 | 0.01 | 0.01 | 1016.3 | |
| 20260505051708 | 0 | 103 | 0.0 | 2.0 | 0.00 | 0.01 | 0.01 | 1016.0 | |
| 20260505051206 | 0 | 103 | 0.0 | 2.0 | 0.00 | 0.01 | 0.01 | 1016.0 | |
| 20260505050703 | 0 | 103 | 0.0 | 2.0 | 0.00 | 0.01 | 0.01 | 1016.0 | |
| 20260505050201 | 0 | 103 | 0.0 | 2.0 | 0.00 | 0.01 | 0.01 | 1016.0 | |
| 20260505041631 | 0 | 145 | 0.0 | 2.0 | 0.00 | 0.01 | 0.01 | 1015.6 | |
| 20260505041128 | 0 | 145 | 0.0 | 2.0 | 0.00 | 0.01 | 0.01 | 1015.6 | |
| 20260505040625 | 0 | 159 | 0.0 | 2.0 | 0.00 | 0.01 | 0.01 | 1015.6 | |
| 20260505040122 | 0 | 159 | 0.0 | 2.0 | 0.00 | 0.01 | 0.01 | 1015.6 | |
| 20260505035619 | 0 | 159 | 0.0 | 2.0 | 0.00 | 0.01 | 0.01 | 1015.6 | |
| 20260505035115 | 0 | 159 | 0.0 | 2.0 | 0.00 | 0.01 | 0.01 | 1015.6 | |
| 20260505034612 | 0 | 123 | 0.0 | 3.0 | 0.00 | 0.01 | 0.01 | 1015.3 | |
| 20260505034109 | 0 | 123 | 0.0 | 3.0 | 0.00 | 0.01 | 0.01 | 1015.3 | |
| 20260505033605 | 0 | 83 | 0.0 | 2.0 | 0.00 | 0.01 | 0.01 | 1015.3 | |
| 20260505033104 | 0 | 83 | 0.0 | 3.0 | 0.00 | 0.01 | 0.01 | 1015.3 | |
| 20260505032601 | 0 | 83 | 0.0 | 3.0 | 0.00 | 0.01 | 0.01 | 1015.3 | |
| 20260505032057 | 0 | 34 | 0.0 | 3.0 | 0.00 | 0.01 | 0.01 | 1015.0 | |
| 20260505031555 | 0 | 34 | 1.0 | 4.0 | 0.00 | 0.01 | 0.01 | 1015.0 | |
| 20260505031051 | 0 | 149 | 1.0 | 4.0 | 0.00 | 0.01 | 0.01 | 1015.0 | |
| 20260505030548 | 0 | 71 | 1.0 | 3.0 | 0.00 | 0.01 | 0.01 | 1015.0 | |
| 20260505030044 | 0 | 75 | 0.0 | 3.0 | 0.00 | 0.01 | 0.01 | 1015.0 | |
| 20260505025540 | 0 | 75 | 1.0 | 3.0 | 0.00 | 0.01 | 0.01 | 1015.0 | |
| 20260505025039 | 0 | 69 | 0.0 | 2.0 | 0.00 | 0.01 | 0.01 | 1015.0 | |
| 20260505024536 | 0 | 69 | 0.0 | 2.0 | 0.00 | 0.01 | 0.01 | 1015.0 | |
| 20260505024033 | 0 | 69 | 0.0 | 2.0 | 0.00 | 0.01 | 0.01 | 1015.0 | |
| 20260505023530 | 0 | 69 | 0.0 | 2.0 | 0.00 | 0.01 | 0.01 | 1015.0 | |
| 20260505023027 | 0 | 69 | 0.0 | 1.0 | 0.00 | 0.01 | 0.01 | 1015.0 | |
| 20260505022525 | 0 | 69 | 0.0 | 1.0 | 0.01 | 0.01 | 0.01 | 1015.0 | |
| 20260505022022 | 0 | 69 | 1.0 | 3.0 | 0.01 | 0.01 | 0.01 | 1015.0 | |
| 20260505021519 | 0 | 69 | 1.0 | 3.0 | 0.01 | 0.01 | 0.01 | 1015.0 | |
| 20260505021015 | 0 | 52 | 0.0 | 2.0 | 0.01 | 0.01 | 0.01 | 1015.0 | |
| 20260505020515 | 0 | 52 | 0.0 | 2.0 | 0.01 | 0.01 | 0.01 | 1015.0 | |
| 20260505020012 | 0 | 52 | 0.0 | 3.0 | 0.01 | 0.01 | 0.01 | 1015.0 | |
| 20260505015509 | 0 | 52 | 0.0 | 3.0 | 0.01 | 0.01 | 0.01 | 1015.0 | |
| 20260505015006 | 0 | 348 | 0.0 | 2.0 | 0.01 | 0.01 | 0.01 | 1015.0 | |
| 20260505014503 | 0 | 348 | 1.0 | 4.0 | 0.01 | 0.01 | 0.01 | 1015.0 | |
| 20260505014000 | 0 | 355 | 1.0 | 5.0 | 0.01 | 0.01 | 0.01 | 1015.0 | |
| 20260505013457 | 0 | 155 | 1.0 | 5.0 | 0.01 | 0.01 | 0.01 | 1015.0 | |
| 20260505012954 | 0 | 348 | 1.0 | 3.0 | 0.01 | 0.01 | 0.01 | 1015.0 | |
| 20260505012453 | 0 | 0 | 1.0 | 3.0 | 0.00 | 0.00 | 0.00 | 1015.0 | |
| 20260505011949 | 0 | 0 | 1.0 | 3.0 | 0.00 | 0.00 | 0.00 | 1015.0 | |
| 20260505011445 | 0 | 0 | 1.0 | 3.0 | 0.00 | 0.00 | 0.00 | 1015.0 | |
| 20260505010942 | 0 | 40 | 1.0 | 3.0 | 0.00 | 0.00 | 0.00 | 1015.0 | |
| 20260505010438 | 0 | 133 | 1.0 | 3.0 | 0.00 | 0.00 | 0.00 | 1015.0 | |
| 20260505005934 | 0 | 22 | 1.0 | 3.0 | 0.00 | 0.00 | 0.00 | 1015.0 | |
| 20260505005431 | 0 | 162 | 1.0 | 4.0 | 0.00 | 0.00 | 0.00 | 1015.0 | |
| 20260505004929 | 0 | 348 | 1.0 | 4.0 | 0.00 | 0.00 | 0.00 | 1015.0 | |
| 20260505004425 | 0 | 5 | 1.0 | 4.0 | 0.00 | 0.00 | 0.00 | 1015.0 | |
| 20260505003922 | 0 | 82 | 1.0 | 5.0 | 0.00 | 0.00 | 0.00 | 1015.0 | |
| 20260505003419 | 0 | 49 | 1.0 | 6.0 | 0.00 | 0.00 | 0.00 | 1015.0 | |
| 20260505002915 | 0 | 59 | 1.0 | 6.0 | 0.00 | 0.00 | 0.00 | 1015.0 | |
| 20260505002412 | 0 | 82 | 1.0 | 3.0 | 0.00 | 0.00 | 0.00 | 1015.0 | |
| 20260505001910 | 0 | 89 | 1.0 | 4.0 | 0.00 | 0.00 | 0.00 | 1015.0 | |
| 20260505001407 | 0 | 178 | 1.0 | 6.0 | 0.00 | 0.00 | 0.00 | 1015.0 | |
| 20260505000904 | 0 | 346 | 1.0 | 6.0 | 0.00 | 0.00 | 0.00 | 1015.0 | |
| 20260505000402 | 0 | 71 | 1.0 | 3.0 | 0.00 | 0.00 | 0.00 | 1015.0 | |
| 20260504235858 | 0 | 74 | 1.0 | 5.0 | 0.00 | 0.00 | 0.00 | 1015.3 | |
| 20260504235356 | 0 | 67 | 1.0 | 5.0 | 0.00 | 0.00 | 0.00 | 1015.3 | |
| 20260504234852 | 0 | 49 | 1.0 | 4.0 | 0.00 | 0.00 | 0.00 | 1015.3 | |
| 20260504234350 | 0 | 133 | 1.0 | 4.0 | 0.00 | 0.00 | 0.00 | 1015.3 | |
| 20260504233846 | 0 | 82 | 1.0 | 4.0 | 0.00 | 0.00 | 0.00 | 1015.3 | |
| 20260504233342 | 0 | 28 | 1.0 | 4.0 | 0.00 | 0.00 | 0.00 | 1015.6 | |
| 20260504232839 | 0 | 57 | 1.0 | 4.0 | 0.00 | 0.00 | 0.00 | 1015.6 | |
| 20260504232336 | 0 | 49 | 1.0 | 5.0 | 0.00 | 0.00 | 0.00 | 1015.6 | |
| 20260504231832 | 0 | 47 | 1.0 | 5.0 | 0.00 | 0.00 | 0.00 | 1015.6 | |
| 20260504231329 | 0 | 38 | 1.0 | 6.0 | 0.00 | 0.00 | 0.00 | 1015.6 | |
| 20260504230825 | 0 | 60 | 1.0 | 6.0 | 0.00 | 0.00 | 0.00 | 1015.6 | |
| 20260504230323 | 0 | 49 | 2.0 | 5.0 | 0.00 | 0.00 | 0.00 | 1015.6 | |
| 20260504225822 | 0 | 71 | 2.0 | 4.0 | 0.00 | 0.00 | 0.00 | 1015.6 | |
| 20260504225318 | 0 | 67 | 1.0 | 4.0 | 0.00 | 0.00 | 0.00 | 1015.6 | |
| 20260504224815 | 0 | 24 | 1.0 | 4.0 | 0.00 | 0.00 | 0.00 | 1015.6 | |
| 20260504224312 | 0 | 85 | 1.0 | 6.0 | 0.00 | 0.00 | 0.00 | 1015.6 | |
| 20260504223809 | 0 | 127 | 1.0 | 6.0 | 0.00 | 0.00 | 0.00 | 1015.6 | |
| 20260504223304 | 0 | 5 | 1.0 | 5.0 | 0.00 | 0.00 | 0.00 | 1015.6 |